Regional Weather Roundup
Issued by NWS Goodland, KS

Home | Current Version | Previous Version | Graphics & Text | Print | Product List | Glossary On
Versions: 1 2 3 4 5 6 7 8 9 10 11 12 13 14 15 16 17 18 19 20 21 22 23 24 25 26 27 28 29 30 31 32 33 34 35 36 37 38 39 40 41 42 43 44 45 46 47 48 49 50
000
ASUS43 KGLD 230508
RWRGLD

GOODLAND FORECAST AREA HOURLY WEATHER ROUNDUP
NATIONAL WEATHER SERVICE GOODLAND KS
1100 PM MDT FRI AUG 22 2014

...OFFICIAL OBSERVATIONS...

CITY           SKY/WX    TMP DP  RH WIND       PRES   REMARKS
GOODLAND KS    CLOUDY    65  64  97 CALM      29.98F
HILL CITY KS   LGT RAIN  73  65  75 SE9       29.91F
IMPERIAL NEB   CLOUDY    68  66  93 SE8       29.95R
MCCOOK NEB     HVY RAIN  68  66  93 E3        29.97F FOG
AKRON CO       CLOUDY    60  59  96 E10       30.01R
BURLINGTON CO  LGT RAIN  65  62  90 NE16      29.92F
LIMON CO       CLOUDY    59  58  96 W5        30.06R
$$

...UNOFFICIAL OBSERVATIONS...

CITY           SKY/WX    TMP DP  RH WIND       PRES   REMARKS
COLBY KS       CLEAR     68  68 100 N6        29.96F
NORTON KS      LGT RAIN  68  64  88 CALM      29.95R
SHARON SPRINGS   N/A     66  64  92 N5          N/A
WAKEENEY KS      N/A     71  60  69 MISG        N/A
KIT CARSON CO    N/A     63  60  91 MISG        N/A
YUMA CO          N/A     62  60  95 NE5         N/A
$$



USA.gov is the U.S. government's official web portal to all federal, state and local government web resources and services.